Barrow, AK

9:27 AM AKDT on May 23, 2017 (GMT -0800)
Wiley Post-Will Rogers Memorial

Weather History for PABR - May, 2013

Change the Weather History Date:

Tuesday, May 28, 2013

  Actual Average Record
Temperature  
Mean Temperature 32 °F 28 °F  
Max Temperature 33 °F 32 °F 43 °F (1998)
Min Temperature 30 °F 24 °F 5 °F (1936)
Degree Days  
Heating Degree Days 33 37  
Month to date heating degree days 1202 1251  
Since 1 July heating degree days 17337 18398  
Cooling Degree Days 0    
Month to date cooling degree days 0  
Year to date cooling degree days 0  
Moisture  
Dew Point 28 °F    
Average Humidity 0    
Maximum Humidity 93    
Minimum Humidity 85    
Precipitation  
Precipitation 0.01 in 0.01 in 0.30 in (2010)
Month to date precipitation 0.38 0.16  
Year to date precipitation 1.20 0.68  
Snow  
Snow 0.10 in 0.10 in 0.90 in (2009)
Month to date snowfall 5.0 2.5  
Since 1 July snowfall 62.1 36.8  
Snow Depth 0.00 in    
Sea Level Pressure  
Sea Level Pressure 30.06 in    
Wind  
Wind Speed 13 mph (East)    
Max Wind Speed 18 mph    
Max Gust Speed 22 mph    
Visibility 4 miles    
Events Fog , Snow    
T = Trace of Precipitation, MM = Missing Value Source: NWS Daily Summary

Daily Weather History Graph

Daily Weather History Graph

Search for Another Location

Airport or City:

Trip Planner

Search our weather history database for the weather conditions in past years. The results will help you decide how hot, cold, wet, or windy it might be!

Date:

Astronomy

Dec. 31, 1969 Rise Set
Actual Time Sun does not set Sun does not set
Civil Twilight Sun does not set Sun does not set
Nautical Twilight Sun does not set Sun does not set
Astronomical Twilight Sun does not set Sun does not set
Moon 3:52 AM AKDT (5/28) 7:55 AM AKDT (5/28)
Length of Visible Light 24h 00m
Length of Day
24h 00m
Waning Gibbous, 81% of the Moon is Illuminated
May 28
Waning Gibbous
May 31
Last Quarter
Jun 8
New
Jun 16
First Quarter
Jun 23
Full

Hourly Weather History & Observations

Time (AKDT) Temp. Windchill Dew Point Humidity Pressure Visibility Wind Dir Wind Speed Gust Speed Precip Events Conditions
12:47 AM 30.2 °F 21.3 °F 28.4 °F 93% 30.11 in 2.5 mi East 10.4 mph - N/A   Overcast
12:53 AM 30.9 °F 21.2 °F 28.0 °F 89% 30.11 in 10.0 mi East 12.7 mph - N/A   Overcast
1:15 AM 30.2 °F 21.3 °F 28.4 °F 93% 30.11 in 1.5 mi East 10.4 mph - N/A   Overcast
1:19 AM 30.2 °F 21.9 °F 28.4 °F 93% 30.11 in 0.5 mi East 9.2 mph - N/A Fog Light Freezing Fog
1:26 AM 30.2 °F 21.9 °F 28.4 °F 93% 30.10 in 0.5 mi East 9.2 mph - 0.00 in Fog Light Freezing Drizzle
1:37 AM 30.2 °F 21.9 °F 28.4 °F 93% 30.11 in 7.0 mi East 9.2 mph - 0.00 in   Light Freezing Drizzle
1:53 AM 30.9 °F 22.8 °F 28.0 °F 89% 30.11 in 10.0 mi East 9.2 mph - 0.00 in   Light Freezing Drizzle
2:14 AM 30.2 °F 21.3 °F 28.4 °F 93% 30.10 in 2.0 mi East 10.4 mph - 0.00 in   Light Freezing Drizzle
2:28 AM 30.2 °F 21.3 °F 28.4 °F 93% 30.10 in 1.0 mi East 10.4 mph - 0.00 in   Light Freezing Drizzle
2:31 AM 30.2 °F 20.8 °F 28.4 °F 93% 30.09 in 2.0 mi East 11.5 mph - 0.00 in   Light Freezing Drizzle
2:42 AM 30.2 °F 20.8 °F 28.4 °F 93% 30.09 in 0.5 mi East 11.5 mph - 0.00 in Fog Light Freezing Drizzle
2:53 AM 30.0 °F 20.5 °F 27.0 °F 88% 30.09 in 2.0 mi East 11.5 mph - 0.00 in   Light Freezing Drizzle
3:00 AM 30.2 °F 21.3 °F 28.4 °F 93% 30.09 in 1.2 mi East 10.4 mph - 0.00 in   Light Freezing Drizzle
3:28 AM 30.2 °F 21.3 °F 28.4 °F 93% 30.10 in 6.0 mi ESE 10.4 mph - 0.00 in   Overcast
3:40 AM 30.2 °F 20.2 °F 28.4 °F 93% 30.09 in 2.0 mi ESE 12.7 mph - 0.00 in   Light Freezing Drizzle
3:46 AM 30.2 °F 20.8 °F 28.4 °F 93% 30.09 in 4.0 mi ESE 11.5 mph - 0.00 in   Light Freezing Drizzle
3:53 AM 30.9 °F 21.2 °F 28.0 °F 89% 30.10 in 7.0 mi ESE 12.7 mph - 0.00 in   Overcast
4:47 AM 30.2 °F 20.2 °F 28.4 °F 93% 30.08 in 2.5 mi East 12.7 mph - 0.00 in   Light Freezing Drizzle
4:53 AM 30.9 °F 21.2 °F 28.0 °F 89% 30.08 in 4.0 mi ESE 12.7 mph - 0.00 in   Light Freezing Drizzle
5:03 AM 30.2 °F 20.2 °F 28.4 °F 93% 30.08 in 1.8 mi East 12.7 mph - 0.00 in   Light Freezing Drizzle
5:21 AM 30.2 °F 20.8 °F 28.4 °F 93% 30.08 in 3.0 mi East 11.5 mph - 0.00 in   Light Freezing Drizzle
5:31 AM 30.2 °F 20.8 °F 28.4 °F 93% 30.08 in 3.0 mi East 11.5 mph - 0.00 in   Overcast
5:53 AM 30.0 °F 20.0 °F 28.0 °F 92% 30.08 in 8.0 mi East 12.7 mph - 0.00 in   Overcast
6:05 AM 30.2 °F 19.8 °F 28.4 °F 93% 30.07 in 1.8 mi East 13.8 mph - N/A   Overcast
6:14 AM 30.2 °F 20.2 °F 28.4 °F 93% 30.07 in 2.5 mi East 12.7 mph - N/A   Overcast
6:22 AM 30.2 °F 21.3 °F 28.4 °F 93% 30.06 in 1.5 mi East 10.4 mph - 0.00 in   Light Freezing Drizzle
6:40 AM 30.2 °F 21.3 °F 28.4 °F 93% 30.06 in 0.8 mi East 10.4 mph - 0.00 in   Light Freezing Drizzle
6:48 AM 30.2 °F 20.8 °F 28.4 °F 93% 30.06 in 1.5 mi East 11.5 mph - 0.00 in   Light Freezing Drizzle
6:53 AM 30.0 °F 20.0 °F 28.0 °F 92% 30.07 in 1.8 mi East 12.7 mph - 0.00 in   Light Freezing Drizzle
7:27 AM 30.2 °F 19.3 °F 28.4 °F 93% 30.07 in 2.0 mi ESE 15.0 mph - 0.00 in   Light Freezing Drizzle
7:34 AM 30.2 °F 20.8 °F 28.4 °F 93% 30.07 in 0.5 mi East 11.5 mph - 0.00 in Fog Light Freezing Drizzle
7:41 AM 30.2 °F 19.8 °F 26.6 °F 86% 30.06 in 0.8 mi ESE 13.8 mph - 0.00 in   Overcast
7:53 AM 30.0 °F 20.0 °F 27.0 °F 88% 30.06 in 0.8 mi East 12.7 mph - 0.00 in   Mist
8:53 AM 30.0 °F 19.5 °F 28.0 °F 92% 30.06 in 0.8 mi East 13.8 mph - N/A   Mist
9:53 AM 30.9 °F 20.7 °F 28.0 °F 89% 30.06 in 0.8 mi East 13.8 mph - N/A   Mist
10:00 AM 30.2 °F 19.8 °F 28.4 °F 93% 30.05 in 1.0 mi East 13.8 mph - N/A   Overcast
10:07 AM 30.2 °F 20.8 °F 28.4 °F 93% 30.05 in 0.8 mi East 11.5 mph - 0.00 in   Light Freezing Rain
10:17 AM 30.2 °F 18.9 °F 28.4 °F 93% 30.05 in 0.5 mi East 16.1 mph - 0.00 in   Light Freezing Rain
10:31 AM 30.2 °F 19.3 °F 28.4 °F 93% 30.05 in 0.8 mi East 15.0 mph - 0.00 in   Light Freezing Rain
10:37 AM 30.2 °F 19.3 °F 28.4 °F 93% 30.05 in 0.5 mi East 15.0 mph - 0.00 in Fog Light Freezing Rain
10:44 AM 30.2 °F 20.2 °F 28.4 °F 93% 30.05 in 0.8 mi East 12.7 mph - 0.00 in   Overcast
10:53 AM 30.9 °F 20.2 °F 28.0 °F 89% 30.05 in 0.8 mi East 15.0 mph - 0.00 in   Light Freezing Rain
11:21 AM 30.2 °F 19.8 °F 28.4 °F 93% 30.05 in 2.5 mi East 13.8 mph - 0.00 in   Overcast
11:28 AM 30.2 °F 19.8 °F 28.4 °F 93% 30.05 in 3.0 mi East 13.8 mph - 0.00 in   Overcast
11:53 AM 30.9 °F 20.2 °F 28.0 °F 89% 30.04 in 3.0 mi East 15.0 mph - 0.00 in   Overcast
12:53 PM 30.9 °F 20.7 °F 28.0 °F 89% 30.04 in 3.0 mi East 13.8 mph - N/A   Overcast
1:53 PM 30.9 °F 19.4 °F 28.0 °F 89% 30.03 in 5.0 mi East 17.3 mph - N/A   Overcast
2:53 PM 30.9 °F 20.2 °F 28.9 °F 92% 30.03 in 10.0 mi East 15.0 mph - N/A   Overcast
3:53 PM 30.9 °F 19.8 °F 28.0 °F 89% 30.01 in 10.0 mi East 16.1 mph - N/A   Overcast
4:53 PM 32.0 °F 21.6 °F 28.9 °F 88% 30.02 in 10.0 mi East 15.0 mph - N/A   Overcast
5:53 PM 32.0 °F 22.1 °F 28.0 °F 85% 30.01 in 10.0 mi ESE 13.8 mph - N/A   Overcast
6:53 PM 32.0 °F 22.1 °F 28.9 °F 88% 30.00 in 10.0 mi East 13.8 mph - N/A   Overcast
7:28 PM 32.0 °F 21.6 °F 28.4 °F 87% 29.98 in 10.0 mi ESE 15.0 mph - N/A   Overcast
7:53 PM 32.0 °F 21.6 °F 28.9 °F 88% 29.99 in 10.0 mi ESE 15.0 mph - N/A   Overcast
8:53 PM 32.0 °F 22.5 °F 28.9 °F 88% 29.99 in 10.0 mi ESE 12.7 mph - N/A   Overcast
9:53 PM 32.0 °F 24.2 °F 28.9 °F 88% 29.99 in 10.0 mi ESE 9.2 mph - N/A   Overcast
10:53 PM 32.0 °F 24.2 °F 28.9 °F 88% 29.99 in 10.0 mi SE 9.2 mph - N/A   Overcast
11:08 PM 30.2 °F 21.9 °F 28.4 °F 93% 29.98 in 1.5 mi ESE 9.2 mph - 0.00 in Snow Light Snow
11:17 PM 32.0 °F 24.2 °F 28.4 °F 87% 29.98 in 0.8 mi ESE 9.2 mph - 0.00 in Snow Light Snow
11:37 PM 32.0 °F 24.8 °F 28.4 °F 87% 29.98 in 0.8 mi ESE 8.1 mph - 0.00 in Snow Light Snow
11:53 PM 30.9 °F 23.5 °F 28.9 °F 92% 29.99 in 1.2 mi SSE 8.1 mph - 0.00 in   Overcast
11:56 PM 30.2 °F 23.4 °F 28.4 °F 93% 29.98 in 3.0 mi SSE 6.9 mph - N/A   Overcast